N6186F KDCA-KCVG

Flight info

Callsign N6186F
Flight time N/A
Altitude VFR/105
Route
Aircraft HDJT/L-VGDW/C

Departure

Time 2026-04-30 02:14
Airport Ronald Reagan Washington National Airport (KDCA)

Arrival

Time N/A
Airport Cincinnati Northern Kentucky International Airport (KCVG)
Time Latitude Longitude Altitude Speed Heading
2026-04-30 02:12 38.86083 -77.04301 17 ft 0 kts 140°
2026-04-30 02:14 38.85893 -77.04114 21 ft 83 kts 143°
2026-04-30 02:14 38.85201 -77.03461 140 ft 145 kts 144°
2026-04-30 02:14 38.84403 -77.02543 596 ft 163 kts 139°
2026-04-30 02:14 38.83834 -77.01865 910 ft 175 kts 139°
2026-04-30 02:15 38.82460 -77.00472 1551 ft 199 kts 154°
2026-04-30 02:15 38.81140 -76.99916 2043 ft 200 kts 165°
2026-04-30 02:15 38.79787 -76.99462 2476 ft 203 kts 166°
2026-04-30 02:15 38.78416 -76.99008 2497 ft 203 kts 166°
2026-04-30 02:16 38.77020 -76.98549 2797 ft 224 kts 166°
2026-04-30 02:16 38.75403 -76.98140 2993 ft 249 kts 179°
2026-04-30 02:16 38.73708 -76.98659 2990 ft 254 kts 209°
2026-04-30 02:16 38.72506 -77.00239 3566 ft 251 kts 240°
2026-04-30 02:17 38.71778 -77.02289 4311 ft 256 kts 248°
2026-04-30 02:17 38.71126 -77.04417 5058 ft 258 kts 249°
2026-04-30 02:17 38.70479 -77.06570 5818 ft 260 kts 249°
2026-04-30 02:17 38.69828 -77.08748 6564 ft 263 kts 249°
2026-04-30 02:18 38.69521 -77.11046 7316 ft 265 kts 275°
2026-04-30 02:18 38.69912 -77.13373 7968 ft 272 kts 285°
2026-04-30 02:18 38.70344 -77.15694 7997 ft 272 kts 280°
2026-04-30 02:18 38.70551 -77.18088 8174 ft 268 kts 273°
2026-04-30 02:19 38.70664 -77.20490 8927 ft 273 kts 274°
2026-04-30 02:19 38.70849 -77.22919 9676 ft 276 kts 276°
2026-04-30 02:19 38.71062 -77.25368 10402 ft 280 kts 276°
2026-04-30 02:19 38.71259 -77.27868 10496 ft 282 kts 275°
2026-04-30 02:20 38.71445 -77.30368 10498 ft 281 kts 275°
2026-04-30 02:20 38.71636 -77.32858 10499 ft 282 kts 276°
2026-04-30 02:20 38.71827 -77.35321 10499 ft 282 kts 276°
2026-04-30 02:20 38.72018 -77.37815 10499 ft 282 kts 275°
2026-04-30 02:21 38.72209 -77.40309 10499 ft 282 kts 275°
2026-04-30 02:21 38.72398 -77.42804 10499 ft 282 kts 275°
2026-04-30 02:21 38.72593 -77.45368 10500 ft 305 kts 275°
2026-04-30 02:21 38.72809 -77.48207 10504 ft 334 kts 275°
2026-04-30 02:22 38.73040 -77.51274 10510 ft 357 kts 275°
2026-04-30 02:22 38.73283 -77.54513 10509 ft 373 kts 275°
2026-04-30 02:22 38.73536 -77.57881 10508 ft 385 kts 275°
2026-04-30 02:22 38.73789 -77.61276 10510 ft 392 kts 275°
2026-04-30 02:23 38.73965 -77.63641 10508 ft 396 kts 275°
2026-04-30 02:23 38.74311 -77.68319 10508 ft 401 kts 275°
2026-04-30 02:23 38.74575 -77.71886 10509 ft 403 kts 275°
2026-04-30 02:23 38.74837 -77.75467 10509 ft 405 kts 275°
2026-04-30 02:24 38.75099 -77.79060 10509 ft 406 kts 275°
2026-04-30 02:24 38.75362 -77.82660 10510 ft 406 kts 275°
2026-04-30 02:24 38.75623 -77.86271 10509 ft 407 kts 275°
2026-04-30 02:24 38.75884 -77.89880 10510 ft 407 kts 275°
2026-04-30 02:25 38.76143 -77.93490 10509 ft 407 kts 275°
2026-04-30 02:25 38.76398 -77.97055 10509 ft 407 kts 275°
2026-04-30 02:25 38.76655 -78.00668 10509 ft 407 kts 275°
2026-04-30 02:25 38.76912 -78.04279 10509 ft 407 kts 275°
2026-04-30 02:26 38.77167 -78.07900 10509 ft 407 kts 275°
2026-04-30 02:26 38.77421 -78.11515 10509 ft 407 kts 275°
2026-04-30 02:26 38.77674 -78.15128 10509 ft 408 kts 275°
2026-04-30 02:26 38.77924 -78.18726 10509 ft 408 kts 275°
2026-04-30 02:27 38.78164 -78.22188 10509 ft 408 kts 275°
2026-04-30 02:27 38.78415 -78.25809 10509 ft 408 kts 275°
2026-04-30 02:27 38.78663 -78.29432 10509 ft 408 kts 275°
2026-04-30 02:27 38.78908 -78.33005 10509 ft 408 kts 275°
2026-04-30 02:28 38.79154 -78.36627 10509 ft 408 kts 275°
2026-04-30 02:28 38.79399 -78.40242 10509 ft 408 kts 275°
2026-04-30 02:28 38.79644 -78.43866 10509 ft 408 kts 275°
2026-04-30 02:28 38.79887 -78.47488 10509 ft 408 kts 275°
2026-04-30 02:29 38.80129 -78.51105 10509 ft 408 kts 275°
2026-04-30 02:29 38.80370 -78.54733 10509 ft 408 kts 275°
2026-04-30 02:29 38.80606 -78.58295 10509 ft 408 kts 275°
2026-04-30 02:29 38.80849 -78.61977 10509 ft 408 kts 275°
2026-04-30 02:30 38.81083 -78.65551 10509 ft 408 kts 275°
2026-04-30 02:30 38.81319 -78.69173 10509 ft 408 kts 275°
2026-04-30 02:30 38.81555 -78.72791 10509 ft 408 kts 275°
2026-04-30 02:30 38.81789 -78.76413 10509 ft 408 kts 275°
2026-04-30 02:31 38.82023 -78.80043 10509 ft 408 kts 275°
2026-04-30 02:31 38.82254 -78.83666 10509 ft 408 kts 275°
2026-04-30 02:31 38.82454 -78.86800 10509 ft 408 kts 275°